ECMWFNIL_850_temp_132.txt.gz
Temp
14 14 13 13 13 13 12 12 12 12 12 12 12 12 12 13 13 13 13 13 13 13 13 13 14 14 13 13 13 13 13 13 13 13 13 13 12 12 12 11 11 11
14 13 13 13 13 12 12 12 12 12 12 12 12 13 13 13 13 13 13 13 13 13 13 13 13 13 13 13 12 12 12 12 12 12 12 12 11 11 11 11 11 11
13 13 13 13 13 12 12 12 12 12 12 12 12 13 13 12 13 13 12 12 12 12 13 13 13 12 12 12 12 12 12 12 12 12 12 11 11 11 11 11 11 10
13 13 13 13 12 12 12 12 12 12 12 12 12 12 12 12 12 12 12 12 12 12 12 12 12 12 12 12 12 12 12 11 11 11 11 11 10 10 10 10 10 10
13 13 12 12 12 12 12 12 11 11 11 11 11 12 12 12 12 12 12 12 12 12 12 12 12 12 11 11 11 11 11 11 11 10 10 10 10 10 10 10 10 9
13 12 12 12 12 12 12 12 11 11 11 11 11 11 12 12 12 12 12 12 12 12 12 12 11 11 11 11 11 11 10 10 10 10 10 10 10 10 10 9 9 9
13 12 12 12 12 12 12 11 11 11 11 11 10 11 11 11 11 11 11 11 11 11 11 11 11 11 11 10 10 10 10 10 10 9 9 9 9 9 9 9 8 8
13 12 12 12 12 12 12 11 11 11 11 10 10 10 11 11 11 11 11 11 11 11 11 11 11 11 10 10 10 10 10 10 9 9 9 9 9 9 8 8 8 8
12 12 12 12 12 12 11 11 11 11 11 10 10 10 10 11 11 11 11 10 10 10 10 10 10 10 10 10 10 9 9 9 9 9 9 9 8 8 8 8 8 8
12 12 12 12 12 12 11 11 11 11 11 10 10 10 10 10 11 10 10 10 10 10 10 10 10 10 9 9 9 9 9 9 9 9 9 8 8 8 8 8 7 7
12 12 12 12 12 11 11 11 11 11 11 10 9 9 10 10 10 10 10 10 9 9 10 9 10 9 9 9 9 9 8 8 8 8 8 8 8 8 8 7 7 7
12 12 12 12 12 11 11 11 11 11 10 9 9 9 10 10 10 10 9 9 9 9 9 9 9 9 9 9 8 8 8 8 8 8 8 7 7 7 7 7 7 7
12 12 12 12 11 11 11 11 11 10 10 9 9 9 9 10 10 10 9 9 9 9 9 9 9 9 8 8 8 8 8 8 8 8 7 7 7 7 7 7 7 7
12 12 12 11 11 11 11 11 10 10 9 8 8 8 9 9 10 9 9 9 8 8 8 9 9 8 8 8 7 7 7 7 7 7 7 7 7 7 7 7 7 7
12 12 11 11 11 11 11 10 10 9 9 8 8 8 8 9 9 9 9 9 8 8 8 8 8 8 7 7 7 7 7 7 7 7 7 7 7 7 7 7 7 8
12 11 11 11 11 11 10 9 9 8 8 7 8 8 8 8 8 8 8 8 8 8 8 8 8 7 7 7 7 7 7 7 7 7 7 7 7 7 7 7 7 7
11 11 11 11 10 10 10 9 8 8 7 7 7 8 8 8 8 8 8 8 8 8 8 8 8 8 7 7 7 7 7 6 6 6 6 6 6 7 7 7 7 7
11 11 11 10 10 9 9 8 8 7 7 7 8 8 8 8 8 8 8 8 7 7 7 8 8 7 7 7 7 7 7 6 6 6 6 6 6 6 6 7 7 7
11 11 10 10 10 9 8 8 7 7 7 7 8 8 8 8 7 7 7 7 7 7 7 7 7 7 7 7 6 7 7 6 6 6 6 6 6 6 6 6 6 6
11 10 10 10 9 8 8 7 7 7 7 7 8 8 8 7 7 7 7 6 6 6 6 7 7 7 7 7 6 6 6 6 6 6 6 6 6 6 6 7 6 6
11 10 10 9 9 8 8 7 7 7 7 7 7 7 7 7 7 6 6 6 6 5 5 6 7 7 7 6 6 6 6 6 6 6 6 6 6 6 6 6 6 6
11 10 9 9 9 8 7 7 7 7 7 7 7 7 7 7 6 6 6 5 5 5 5 5 6 6 6 6 6 6 6 6 6 6 6 6 6 6 6 6 6 6
10 10 9 9 9 8 7 7 7 7 7 7 7 7 7 6 6 5 5 5 5 5 5 5 6 6 6 6 6 6 6 6 5 5 6 6 6 6 6 6 6 6
11 10 10 9 9 8 8 8 7 7 7 7 8 8 7 6 5 5 5 5 5 5 5 5 6 6 6 6 6 6 6 5 5 5 6 6 6 6 6 6 6 6
10 10 10 9 9 9 8 8 8 7 7 7 8 7 7 6 6 6 6 6 6 6 5 5 5 6 6 6 6 6 6 5 4 4 5 5 5 6 6 6 6 6
9 9 9 9 8 8 8 8 8 7 7 7 7 7 6 6 6 5 6 6 6 6 5 5 5 5 5 6 5 6 6 5 4 4 5 5 5 5 5 6 6 6

ECMWFNIL_850_temp_138.txt.gz
Temp
15 14 14 14 14 14 14 14 14 13 13 13 13 13 14 13 14 14 15 15 15 15 15 15 14 15 15 14 14 15 15 15 14 14 14 14 14 14 13 13 13 13
14 14 14 14 14 14 14 14 13 13 13 13 13 14 14 14 14 15 15 15 15 15 14 14 14 14 14 14 14 14 14 14 14 14 14 13 13 13 13 13 12 12
14 14 14 14 14 14 14 13 13 13 13 13 13 14 14 14 15 15 15 15 15 15 14 14 14 14 14 14 14 14 14 14 14 13 13 13 13 13 13 12 12 12
14 14 14 14 14 14 14 13 13 12 13 13 14 14 14 15 15 15 15 15 15 14 14 14 14 14 14 13 13 14 14 14 14 13 13 13 13 12 12 12 12 12
14 14 14 14 14 14 13 13 13 13 13 13 14 14 14 16 16 15 15 15 14 14 14 14 14 13 13 13 13 14 14 13 13 13 13 12 12 12 12 12 12 11
14 14 14 14 14 13 13 13 13 13 13 13 13 14 15 16 15 14 14 15 14 14 14 14 13 13 13 13 13 13 13 13 13 12 12 12 12 12 12 12 11 11
14 14 14 14 14 13 13 12 13 13 13 13 13 14 15 15 14 14 14 14 14 14 13 13 13 13 12 12 13 13 13 13 12 12 12 12 12 11 11 11 11 11
14 14 14 14 13 13 12 12 13 13 12 12 13 14 14 14 13 13 14 13 13 13 12 12 12 12 12 12 12 12 12 12 12 12 12 11 11 11 11 11 11 11
14 14 14 14 13 12 12 13 13 12 12 12 13 13 13 13 13 13 13 13 13 12 12 12 12 12 12 12 12 12 12 12 12 11 11 11 11 11 11 11 10 10
13 14 14 13 13 12 13 13 12 12 12 12 13 13 13 13 13 13 13 13 13 12 11 11 11 11 12 12 12 12 12 12 11 11 11 11 11 11 11 10 10 10
13 13 13 13 13 13 12 12 12 11 12 12 12 12 12 12 12 12 12 12 12 11 11 11 11 11 11 11 11 12 12 11 11 11 10 11 10 10 10 10 10 10
13 13 13 13 13 12 12 11 11 11 12 12 12 12 12 12 12 12 12 12 12 11 11 11 11 11 11 11 11 11 11 10 10 10 10 10 10 10 10 10 10 10
13 13 13 13 13 12 12 11 11 11 12 12 11 11 11 11 11 11 12 12 11 11 11 11 11 11 11 11 11 11 10 10 10 10 10 10 10 10 10 10 10 10
13 13 13 13 12 12 11 11 11 11 11 11 11 11 11 11 11 11 11 11 10 11 11 10 10 10 10 10 10 10 10 10 10 10 10 10 10 10 10 10 10 10
12 12 13 13 12 12 11 11 11 11 11 11 11 10 10 10 10 11 10 10 9 10 10 9 10 10 10 10 10 10 10 10 10 10 10 10 10 9 10 10 10 9
12 12 13 12 12 11 11 11 11 11 11 11 10 10 9 9 9 9 9 9 9 9 9 9 9 10 10 10 10 10 10 10 10 10 10 9 9 9 10 9 9 9
12 13 13 12 11 11 11 11 11 11 11 10 10 9 9 8 8 9 9 8 8 8 8 9 9 9 9 9 10 10 10 10 9 9 9 9 9 9 9 9 9 9
12 12 12 11 11 11 11 11 11 10 11 10 9 9 8 8 8 8 8 8 8 8 8 9 9 9 9 10 10 9 9 9 9 8 8 8 9 9 9 8 8 9
11 11 11 11 11 11 11 11 10 10 10 10 9 8 8 8 8 8 8 8 7 7 8 8 9 9 9 9 9 9 8 8 8 8 8 8 8 8 8 8 8 8
11 11 11 11 11 11 11 11 10 10 10 9 9 8 8 8 7 7 7 7 7 7 8 9 9 9 9 9 9 8 8 8 7 7 7 7 7 7 7 8 8 8
11 11 11 11 11 11 11 11 10 10 10 9 8 8 8 7 7 7 7 7 7 7 8 9 9 9 9 9 8 8 8 7 7 7 8 7 7 7 7 8 8 8
11 11 12 11 11 11 11 10 10 10 9 8 8 8 8 7 7 7 7 7 7 6 8 9 9 9 9 8 8 8 8 8 8 8 8 7 7 7 8 7 7 7
11 12 13 13 12 11 11 10 10 9 9 8 8 8 7 6 6 6 6 6 6 6 7 9 9 8 8 8 8 8 8 8 8 8 7 7 7 8 8 8 8 8
12 13 13 13 12 11 11 10 10 9 9 8 8 8 7 6 6 6 6 6 6 6 7 8 8 8 8 8 8 8 8 8 7 7 7 7 7 8 8 8 8 8
13 13 12 12 12 11 11 10 10 9 8 8 8 7 7 6 6 6 6 6 6 5 6 7 8 8 8 8 8 8 7 7 7 6 6 6 7 7 8 8 8 7
13 12 12 12 11 11 10 10 9 8 8 8 7 7 7 6 6 6 5 5 5 5 6 7 7 8 8 8 8 7 7 7 7 6 6 6 6 7 7 8 8 7

ECMWFNIL_850_temp_141.txt.gz
Temp
15 15 15 15 15 15 15 15 15 14 14 14 14 14 14 14 14 14 14 14 14 15 15 15 15 15 15 15 15 15 15 15 15 15 15 15 15 15 15 14 14 14
15 15 15 15 15 15 14 14 14 14 14 13 13 13 13 13 14 14 14 14 14 15 15 15 15 15 15 15 15 15 15 15 15 15 15 15 15 14 14 14 14 14
15 15 15 15 15 14 14 14 14 14 14 13 13 13 13 14 14 14 14 14 14 14 15 15 15 15 15 15 14 14 15 14 14 14 14 14 14 14 14 13 13 13
15 15 14 14 14 14 14 14 14 13 13 13 13 13 13 14 14 14 14 14 14 14 14 14 15 15 15 14 14 14 14 14 14 14 14 14 14 13 13 13 13 12
14 14 14 14 14 14 14 14 14 13 13 13 13 13 14 14 14 14 14 14 14 14 14 14 14 14 14 14 14 14 14 14 14 14 14 14 13 13 13 12 12 12
14 14 14 14 14 14 13 13 14 13 13 13 13 13 13 14 14 13 13 13 14 14 14 14 14 14 14 14 14 14 13 13 14 13 13 13 13 12 12 12 12 12
13 13 13 14 14 14 13 13 13 13 12 13 13 13 13 13 13 13 12 13 13 14 14 14 14 14 14 14 13 13 13 13 13 13 13 13 12 12 12 12 12 12
12 13 13 14 14 13 13 13 13 12 12 13 13 13 13 13 12 12 12 13 13 14 14 14 14 14 14 13 13 13 13 13 13 13 13 12 12 12 12 11 11 11
12 13 13 14 14 13 13 13 12 12 12 13 13 13 13 13 12 12 12 13 13 14 14 14 13 13 13 13 13 12 13 13 13 12 12 12 12 12 11 11 11 11
12 13 14 14 14 13 13 13 13 12 12 13 13 13 13 13 12 12 13 13 13 13 14 13 13 13 13 13 12 12 12 12 12 12 12 12 12 11 11 11 11 11
13 14 14 14 14 13 13 13 13 13 13 13 13 13 13 13 13 13 13 13 13 13 13 13 13 13 13 12 12 12 12 12 12 12 12 11 11 11 11 11 11 11
13 14 14 14 14 13 13 13 13 13 13 13 13 13 13 13 13 14 13 13 13 13 13 13 13 13 13 12 12 12 12 12 12 11 11 11 11 11 11 11 11 11
13 14 14 14 14 13 13 13 13 13 13 13 13 13 13 13 13 13 13 13 13 13 13 13 13 13 12 12 11 11 11 11 11 11 11 11 11 11 11 10 10 10
13 14 14 14 14 13 13 13 12 12 12 12 13 13 13 13 13 13 13 13 12 12 13 13 13 13 12 12 11 11 11 11 11 11 11 11 10 11 10 10 10 10
12 13 14 14 13 13 12 12 12 12 12 12 13 13 13 12 12 12 12 12 12 12 12 12 13 12 12 11 11 11 11 11 11 11 10 11 11 11 10 10 10 10
12 13 13 14 13 13 12 12 12 11 12 12 12 12 12 12 12 12 12 12 12 12 12 12 12 12 12 11 11 11 11 11 10 10 10 11 11 11 10 10 10 10
12 12 13 13 13 12 12 12 11 11 12 12 12 11 11 11 11 11 11 11 11 11 12 12 12 11 11 11 10 10 10 10 10 10 10 11 11 11 10 10 10 9
12 12 12 13 12 12 11 11 11 11 11 11 11 11 11 11 10 10 10 10 10 11 11 11 11 11 10 10 10 10 10 10 10 10 10 11 11 10 10 10 10 10
12 12 12 12 12 12 11 11 11 11 11 11 11 11 11 10 10 10 10 10 10 10 10 10 10 10 9 9 10 9 9 9 10 10 10 11 11 10 10 10 10 10
12 11 11 11 12 11 11 11 11 11 11 11 11 11 10 10 10 10 10 9 9 9 9 9 9 9 8 9 9 9 9 9 9 9 10 11 11 10 10 10 9 10
11 11 11 11 11 11 11 11 11 11 11 11 11 11 11 10 10 10 9 9 9 9 8 8 8 8 8 8 8 8 8 8 8 9 10 10 10 10 9 9 9 9
11 11 11 11 11 11 11 11 11 11 11 11 11 11 10 10 10 9 9 9 9 8 8 7 8 7 7 7 7 7 7 8 8 8 9 10 10 9 9 9 9 9
10 10 11 11 11 11 11 11 11 11 11 11 11 10 10 10 10 9 9 9 8 8 7 7 7 7 7 7 7 7 7 7 7 8 9 9 9 9 9 9 9 9
10 10 10 11 11 11 11 11 11 11 11 11 10 10 10 10 10 9 8 8 8 7 7 7 7 7 6 6 6 6 6 6 7 8 8 8 8 8 8 8 8 9
10 10 10 11 11 11 11 10 10 11 11 11 10 10 10 10 9 9 8 8 8 7 7 6 6 6 6 6 6 6 6 6 7 7 7 7 7 7 8 8 8 8
10 10 10 10 11 11 11 10 10 11 11 11 10 10 10 9 9 8 8 8 7 7 6 6 6 6 6 6 6 5 5 6 6 7 7 6 6 7 7 7 7 8

ECMWFNIL_850_temp_144.txt.gz
Temp
14 14 15 15 15 15 15 15 15 15 14 14 14 14 14 14 14 14 14 14 13 13 14 14 14 14 14 15 15 15 16 16 16 16 16 15 15 15 15 15 15 14
14 14 15 15 15 15 15 15 15 14 14 14 14 14 14 14 14 13 13 13 13 13 14 14 14 14 14 15 15 15 16 16 16 16 15 15 15 15 14 14 14 14
14 14 14 15 15 15 15 15 14 14 14 14 14 14 14 13 13 13 13 13 13 13 14 14 14 14 14 15 15 15 15 15 15 15 15 15 15 14 14 14 14 14
14 14 14 14 15 15 15 15 14 14 14 13 14 14 14 13 13 13 13 13 14 14 14 14 14 14 14 15 15 15 15 15 15 15 15 14 14 14 14 14 14 13
14 14 14 14 14 15 15 15 14 14 14 14 14 14 13 13 13 13 13 13 14 13 14 14 14 14 14 14 15 15 15 15 15 15 14 14 14 13 13 13 13 13
14 14 14 14 14 15 14 14 14 14 14 14 14 13 13 13 13 13 13 13 13 13 14 14 14 14 14 14 15 15 15 15 15 14 14 13 13 13 13 13 13 13
14 14 14 14 14 14 14 14 14 14 14 14 13 13 13 13 13 13 13 13 13 13 14 14 13 14 14 15 15 15 14 14 14 14 13 13 13 13 13 12 12 12
13 14 14 14 14 14 14 13 13 13 13 13 13 13 13 13 13 13 13 13 13 13 14 14 14 14 14 15 15 15 14 14 14 13 13 13 13 13 12 12 12 12
13 13 14 14 14 14 13 13 13 13 13 13 13 13 13 13 13 13 13 13 13 13 14 14 14 14 14 14 14 14 14 14 13 13 13 12 12 12 12 12 12 11
13 13 14 14 14 14 14 13 13 13 13 13 12 12 12 13 13 13 13 13 13 14 14 14 14 14 14 14 14 14 14 13 13 13 12 12 12 12 12 12 12 11
13 13 13 13 14 14 14 13 13 13 13 13 12 12 12 13 13 13 13 13 14 14 14 14 14 14 14 14 14 13 13 13 13 12 12 12 12 12 12 12 11 11
13 13 13 13 14 14 14 13 13 13 13 12 12 12 12 13 13 13 13 14 13 13 13 13 13 13 13 13 13 13 13 12 12 12 12 11 11 11 11 11 11 11
13 13 13 13 14 14 13 13 13 13 13 12 12 12 12 13 13 13 13 13 13 13 13 13 13 13 13 13 13 13 13 12 12 12 11 11 11 11 11 11 11 11
12 13 13 13 14 14 13 13 13 13 13 12 12 12 12 13 13 13 13 13 13 13 13 13 13 13 13 13 13 12 12 12 12 11 11 11 11 11 11 11 11 11
12 12 12 13 14 13 13 13 13 13 12 12 12 12 12 13 13 13 13 13 13 13 13 13 13 13 13 13 12 12 12 12 11 11 11 11 11 11 11 11 11 10
12 12 12 13 14 13 13 13 13 12 12 11 12 12 12 13 12 12 12 12 13 13 12 13 12 12 12 12 12 12 12 11 11 11 11 11 11 11 11 11 10 10
12 12 12 13 14 13 13 13 12 12 11 11 12 12 12 12 12 12 12 12 12 12 12 12 12 12 11 11 11 11 11 11 11 11 11 11 11 11 11 11 10 10
12 12 12 13 13 13 13 13 12 12 11 11 11 12 12 12 12 12 12 12 12 12 12 12 12 11 11 10 10 10 10 10 10 10 10 11 11 11 11 11 10 10
12 12 12 12 13 13 13 12 12 11 11 11 11 12 12 12 12 12 11 11 11 11 11 11 11 10 10 10 9 9 9 9 10 10 10 10 11 11 11 10 10 10
12 12 12 12 13 13 12 12 11 11 11 11 11 11 12 12 12 12 11 11 11 10 10 10 10 9 9 9 9 8 9 9 9 9 9 10 10 10 10 10 10 10
12 12 11 12 12 12 11 11 11 11 11 11 11 11 12 12 12 12 11 10 10 10 10 9 9 8 8 8 8 8 8 8 8 8 8 9 9 9 9 10 10 9
12 12 11 11 11 11 11 11 11 11 11 11 11 11 11 11 11 11 10 10 10 9 9 9 8 8 8 8 8 8 7 7 7 7 7 8 8 9 8 9 9 9
12 12 11 11 11 11 11 11 11 11 11 11 11 11 11 11 10 10 10 10 9 9 9 9 8 8 8 8 8 7 7 7 7 7 7 7 8 8 8 8 8 8
12 12 11 11 11 11 11 11 11 11 11 11 11 11 11 11 10 10 10 10 10 10 10 9 9 8 8 8 7 7 7 6 6 6 7 7 7 7 7 7 7 7
12 12 11 11 11 11 11 11 11 11 11 11 11 11 11 10 10 10 10 10 10 10 9 9 9 8 8 7 7 6 6 6 6 6 6 6 7 7 7 7 7 7
12 12 12 11 11 10 11 11 11 11 11 10 10 10 10 10 10 10 10 10 10 9 9 8 8 8 7 7 7 6 6 6 6 6 6 6 7 7 7 8 8 8